sat.trackr.live / text

‹ back to catalog

STARLINK-34039

NORAD 63946 · 2025-098W

PAYLOAD ACTIVE UNKNOWN

§ Identity

Operator
Country
US
Launch date
2025-05-13
Launch site
AFWTR
Launch vehicle
Mass (kg)
RCS (m²)

Purposes: comms

External: N2YO · Heavens-Above · Gunter

§ Orbital elements

Epoch: 2026-05-25T03:41:50.565408Z

Period
96.11 min
Inclination
70.0014°
Eccentricity
0.0002691
Mean motion
14.98348447 rev/d
Perigee alt
570.1 km
Apogee alt
573.9 km
Semi-major
6,950.1 km
B*
5.5080e-4
RAAN
81.7623°
Arg perigee
265.4483°
Mean anomaly
94.6369°
Rev number
5,800

§ Raw data

STARLINK-340391 63946U 25098W   26145.15405747  .00006488  00000+0  55080-3 0  99992 63946  70.0014  81.7623 0002691 265.4483  94.6369 14.98348447 58001

JSON: /api/v1/satellites/63946 · /tle

For live sub-satellite position, see the globe view (requires WebGL).

§ Visibility from observer

Set your observer location to see the next 7 days of passes ≥ 10°. The values pass through the URL so the page stays shareable.

No JS? Fill the form by hand. The geolocation button needs JavaScript.